Location: Killam
(52.7910°N, 111.8608°W)
Time: 19:23:04
(UTC+00:00)

Vanguard 1 Rocket - Visible Passes

Search period start: 15 February 2026 00:00
Search period end: 25 February 2026 00:00
Orbit: 652 x 4215 km, 34.3° (Epoch: 12 February)

Date Brightness Start Highest point End Pass type
(mag) Time Alt. Az. Time Alt. Az. Time Alt. Az.
15 Feb 11.3 01:57:41 10° WSW 02:14:16 37° SSW 02:36:05 10° SE visible
15 Feb 11.7 04:27:31 10° W 04:41:50 20° SW 04:57:22 10° S visible
16 Feb 11.2 00:44:48 10° WSW 00:59:47 41° S 01:21:48 10° SE visible
16 Feb 11.6 03:11:57 10° W 03:27:51 28° SW 03:46:51 10° SSE visible
17 Feb 11.4 01:58:02 10° WSW 02:13:33 34° SSW 02:34:18 10° SSE visible
17 Feb 11.8 04:29:19 10° WSW 04:40:46 16° SW 04:53:16 10° SSW visible
18 Feb 11.3 00:45:06 10° WSW 00:59:16 38° SSW 01:20:20 10° SE visible
18 Feb 11.7 03:12:48 10° W 03:26:59 23° SW 03:44:05 10° S visible
19 Feb 11.5 01:58:34 10° WSW 02:12:54 29° SSW 02:32:09 10° SSE visible
19 Feb 12.0 04:33:09 10° WSW 04:39:47 12° SW 04:46:49 10° SSW visible
20 Feb 11.4 00:45:31 10° WSW 00:58:47 34° SSW 01:18:35 10° SE visible
20 Feb 11.9 03:14:11 10° WSW 03:26:11 19° SW 03:40:31 10° S visible
21 Feb 11.7 01:59:22 10° WSW 02:12:18 25° SSW 02:29:33 10° SSE visible
22 Feb 12.0 03:16:37 10° WSW 03:25:26 14° SW 03:35:37 10° SSW visible
23 Feb 11.8 02:00:34 10° WSW 02:11:45 20° SSW 02:26:20 10° S visible
